Hourly Data Report for October 17, 2020

OTTAWA INTL A
ONTARIO
Current Station Operator: NAVCAN

45°19'00.000" N
75°40'00.000" W
114.90 m
6106001
71628
YOW

Download Data

Hourly Data (October 2020)
Hourly Data Report for October 17, 2020
TIME Temp Definition
°C
Dew Point Definition
°C
Rel Hum Definition
%
Wind Dir Definition
10's deg

Wind Spd Definition
km/h
Visibility Definition
km
Stn Press Definition
kPa
Hmdx Definition


Wind Chill Definition


Weather Definition


00:00 0.6 -0.1 95 16 5 24.1 100.94     LegendNANA
01:00 1.5 1.1 97 22 7 24.1 100.91     Mostly Cloudy
02:00 1.2 0.8 97 20 4 24.1 100.90     LegendNANA
03:00 0.4 0.2 99 36 2 24.1 100.93     LegendNANA
04:00 -0.2 -0.3 99 12 5 24.1 100.92   -2 Mostly Cloudy
05:00 0.1 -0.4 97 20 4 24.1 100.89     LegendNANA
06:00 0.0 -0.3 98 36 1 24.1 100.96   0 LegendNANA
07:00 0.0 -0.3 98 22 3 24.1 101.00   -1 Mainly Clear
08:00 2.3 2.0 98 36 1 24.1 101.04     LegendNANA
09:00 6.0 3.2 82 19 4 24.1 101.08     LegendNANA
10:00 9.5 2.0 59 22 10 24.1 101.07     Clear
11:00 11.1 2.3 54 22 14 24.1 101.07     LegendNANA
12:00 12.1 2.6 52 24 22 24.1 101.03     LegendNANA
13:00 13.3 2.1 47 23 22 24.1 100.97     Mainly Clear
14:00 12.7 0.2 42 24 15 24.1 100.92     LegendNANA
15:00 13.3 -0.5 38 23 22 24.1 100.91     LegendNANA
16:00 11.6 0.9 47 21 17 24.1 100.94     Mostly Cloudy
17:00 11.1 1.9 53 20 17 24.1 100.98     LegendNANA
18:00 8.5 2.5 66 19 11 24.1 100.97     LegendNANA
19:00 7.6 2.7 71 19 11 24.1 101.02     Clear
20:00 6.5 2.0 73 20 11 24.1 101.05     LegendNANA
21:00 5.8 1.4 73 20 9 24.1 101.10     LegendNANA
22:00 4.9 1.4 78 21 9 24.1 101.16     Clear
23:00 4.7 1.2 78 18 8 24.1 101.18     LegendNANA

Notes on Data Quality.

Legend

  • E = Estimated
  • M = Missing
  • NA = Not Available*
  • [empty] = Indicates an unobserved value
Date modified: